Sigfox identifier Datetime Temperature Humidity SNR
003A5943 2019-04-23 14:59:57 15.6 36 22.6
003A5943 2019-04-23 14:25:39 15.6 36 22.6
003A5943 2019-04-23 13:51:22 15.6 36 22
003A5943 2019-04-23 13:17:06 15.6 36 22
003A5943 2019-04-23 12:42:49 15.6 36 21.5
003A5943 2019-04-23 12:08:33 15.4 36 21.1
003A5943 2019-04-23 11:34:17 15.4 36 21
003A5943 2019-04-23 11:00:00 15.4 36 20.4
003A5943 2019-04-23 10:25:44 15.4 36 19.8
003A5943 2019-04-23 09:51:28 15.4 36 19.6
003A5943 2019-04-23 09:17:11 15.5 36 18.7
003A5943 2019-04-23 08:42:54 15.4 36 17.7
003A5943 2019-04-23 08:08:36 15.4 36 16.4
003A5943 2019-04-23 07:34:19 15.4 36 16.4
003A5943 2019-04-23 07:00:02 15.4 36 16.4
003A5943 2019-04-23 06:25:45 15.4 36 16.7
003A5943 2019-04-23 05:51:26 15.5 36 16.8
003A5943 2019-04-23 05:17:11 15.5 36 17
003A5943 2019-04-23 04:42:52 15.6 36 17.1
003A5943 2019-04-23 04:08:35 15.6 36 17.2
003A5943 2019-04-23 03:34:19 15.6 36 17.4
003A5943 2019-04-23 03:00:00 15.6 36 17.6
003A5943 2019-04-23 02:25:43 15.6 36 17.8
003A5943 2019-04-23 01:51:28 15.6 36 17.9
003A5943 2019-04-23 01:17:11 15.6 36 18
003A5943 2019-04-23 00:42:55 15.6 36 18.1
003A5943 2019-04-23 00:08:40 15.6 36 18.2
003A5943 2019-04-22 23:34:24 15.6 36 18.2
003A5943 2019-04-22 23:00:09 15.6 36 18.4
003A5943 2019-04-22 22:25:53 15.6 36 18.3
003A5943 2019-04-22 21:51:37 15.6 36 18.3
003A5943 2019-04-22 21:17:20 15.6 36 18.3
003A5943 2019-04-22 20:43:04 15.6 36 18.3
003A5943 2019-04-22 20:08:47 15.6 36 18.4
003A5943 2019-04-22 19:34:29 15.6 36 18.2
003A5943 2019-04-22 19:00:12 15.6 36 18.2
003A5943 2019-04-22 18:25:54 15.6 36 18.1
003A5943 2019-04-22 17:51:37 15.6 36 18.1
003A5943 2019-04-22 17:17:20 15.6 36 18
003A5943 2019-04-22 16:43:03 15.6 36 17.9
003A5943 2019-04-22 16:08:46 15.6 36 17.7
003A5943 2019-04-22 15:34:28 15.5 36 17.7
003A5943 2019-04-22 15:00:12 15.4 36 17.5
003A5943 2019-04-22 14:25:54 15.4 36 17.4
003A5943 2019-04-22 13:51:37 15.4 36 17.2
003A5943 2019-04-22 13:17:20 15.4 36 17
003A5943 2019-04-22 12:43:03 15.4 36 16.7
003A5943 2019-04-22 12:08:47 15.4 35 16.4
003A5943 2019-04-22 11:34:30 15.4 35 16.2
003A5943 2019-04-22 11:00:13 15.4 35 16
003A5943 2019-04-22 10:25:56 15.4 35 15.9
003A5943 2019-04-22 09:51:40 15.4 36 15.9
003A5943 2019-04-22 09:17:22 15.4 36 15.8
003A5943 2019-04-22 08:43:05 15.4 36 15.9
003A5943 2019-04-22 08:08:46 15.4 35 16.4
003A5943 2019-04-22 07:34:29 15.4 35 16.5
003A5943 2019-04-22 07:00:12 15.4 35 16.5
003A5943 2019-04-22 06:25:54 15.4 35 16.7
003A5943 2019-04-22 05:51:37 15.4 35 16.7
003A5943 2019-04-22 05:17:21 15.4 35 16.9
003A5943 2019-04-22 04:43:03 15.4 35 17.1
003A5943 2019-04-22 04:08:50 15.4 35 17.2
003A5943 2019-04-22 03:34:29 15.4 35 17.3
003A5943 2019-04-22 03:00:13 15.4 35 17.4
003A5943 2019-04-22 02:25:57 15.4 35 17.5
003A5943 2019-04-22 01:51:40 15.4 35 17.7
003A5943 2019-04-22 01:17:24 15.4 35 17.7
003A5943 2019-04-22 00:43:07 15.4 35 17.9
003A5943 2019-04-22 00:08:50 15.4 35 18
003A5943 2019-04-21 23:34:33 15.4 35 18.1
003A5943 2019-04-21 23:00:16 15.4 35 18.5
003A5943 2019-04-21 22:25:59 15.4 35 18.8
003A5943 2019-04-21 21:51:42 15.4 35 19
003A5943 2019-04-21 21:17:25 15.4 35 19
003A5943 2019-04-21 20:43:08 15.4 35 18.9
003A5943 2019-04-21 20:08:50 15.4 35 18.9
003A5943 2019-04-21 19:34:33 15.4 35 18.8
003A5943 2019-04-21 19:00:16 15.4 35 18.7
003A5943 2019-04-21 18:25:59 15.4 35 18.4
003A5943 2019-04-21 17:51:43 15.4 35 18.3
003A5943 2019-04-21 17:17:26 15.4 35 18.1
003A5943 2019-04-21 16:43:09 15.4 35 17.8
003A5943 2019-04-21 16:08:52 15.4 35 17.7
003A5943 2019-04-21 15:34:36 15.4 35 17.5
003A5943 2019-04-21 15:00:20 15.4 35 17.3
003A5943 2019-04-21 14:26:04 15.4 35 17.2
003A5943 2019-04-21 13:51:50 15.4 35 17
003A5943 2019-04-21 13:17:32 15.4 35 16.8
003A5943 2019-04-21 12:43:16 15.4 35 16.6
003A5943 2019-04-21 12:09:01 15.4 35 16.5
003A5943 2019-04-21 11:34:46 15.4 35 16.3
003A5943 2019-04-21 11:00:31 15.4 35 16.2
003A5943 2019-04-21 10:26:16 15.4 35 16.2
003A5943 2019-04-21 09:52:02 15.4 35 16.1
003A5943 2019-04-21 09:17:47 15.4 35 15.9
003A5943 2019-04-21 08:43:32 15.4 35 15.7
003A5943 2019-04-21 08:09:16 15.4 35 15.6
003A5943 2019-04-21 07:35:00 15.4 35 18.6
003A5943 2019-04-21 07:00:44 15.4 35 18.7
003A5943 2019-04-21 06:26:28 15.4 35 18.7
003A5943 2019-04-21 05:52:13 15.4 35 18.7
003A5943 2019-04-21 05:17:58 15.4 35 18.8
003A5943 2019-04-21 04:43:43 15.4 35 18.9
003A5943 2019-04-21 04:09:27 15.4 35 18.9
003A5943 2019-04-21 03:35:11 15.4 35 18.9
003A5943 2019-04-21 03:00:55 15.4 35 19
003A5943 2019-04-21 02:26:39 15.5 35 19
003A5943 2019-04-21 01:52:24 15.4 35 18.9
003A5943 2019-04-21 01:18:09 15.4 35 19
003A5943 2019-04-21 00:43:54 15.5 35 19.1
003A5943 2019-04-21 00:09:40 15.4 35 19.1
003A5943 2019-04-20 23:35:24 15.4 35 19.1
003A5943 2019-04-20 23:01:08 15.5 35 19.3
003A5943 2019-04-20 22:26:51 15.5 35 19.5
003A5943 2019-04-20 21:52:34 15.6 35 19.7
003A5943 2019-04-20 21:18:18 15.6 35 19.9
003A5943 2019-04-20 20:44:03 15.5 35 19.9
003A5943 2019-04-20 20:09:47 15.6 35 19.9
003A5943 2019-04-20 19:35:32 15.6 35 19.9
003A5943 2019-04-20 19:01:17 15.6 35 19.9
003A5943 2019-04-20 18:27:02 15.6 35 19.9
003A5943 2019-04-20 17:52:45 15.6 35 19.7
003A5943 2019-04-20 17:18:28 15.6 35 17.4
003A5943 2019-04-20 16:44:12 15.6 35 17.2
003A5943 2019-04-20 16:09:56 15.6 35 17.1
003A5943 2019-04-20 15:35:40 15.6 35 17.1
003A5943 2019-04-20 15:01:24 15.6 35 17
003A5943 2019-04-20 14:27:09 15.6 35 16.9
003A5943 2019-04-20 13:52:55 15.6 35 16.9
003A5943 2019-04-20 13:18:37 15.6 35 16.9
003A5943 2019-04-20 12:44:21 15.6 35 16.8
003A5943 2019-04-20 12:10:04 15.6 35 16.8
003A5943 2019-04-20 11:35:47 15.6 35 16.8
003A5943 2019-04-20 11:01:30 15.6 35 17
003A5943 2019-04-20 10:27:13 15.6 35 17.4
003A5943 2019-04-20 09:52:56 15.6 35 17.4
003A5943 2019-04-20 09:18:39 15.6 35 17.1
003A5943 2019-04-20 08:44:22 15.6 35 17
003A5943 2019-04-20 08:10:06 15.7 35 17
003A5943 2019-04-20 07:35:50 15.7 35 16.9
003A5943 2019-04-20 07:01:33 15.8 35 16.9
003A5943 2019-04-20 06:27:17 15.8 35 17.1
003A5943 2019-04-20 05:53:01 15.8 35 17.3
003A5943 2019-04-20 05:18:45 15.8 35 17.4
003A5943 2019-04-20 04:44:29 15.8 35 17.6
003A5943 2019-04-20 04:10:12 15.8 35 17.5
003A5943 2019-04-20 03:35:56 15.8 35 17.7
003A5943 2019-04-20 03:01:42 15.8 35 17.9
003A5943 2019-04-20 02:27:26 15.8 35 18.1
003A5943 2019-04-20 01:53:08 15.9 35 18.3
003A5943 2019-04-20 01:18:51 15.8 35 18.5
003A5943 2019-04-20 00:44:36 16 35 18.6
003A5943 2019-04-20 00:10:20 16 35 18.6
003A5943 2019-04-19 23:36:05 16 35 18.7
003A5943 2019-04-19 23:01:50 16 35 18.8
003A5943 2019-04-19 22:27:34 16 35 19.1
003A5943 2019-04-19 21:53:17 16 35 19.1
003A5943 2019-04-19 21:19:00 15.9 35 19.1
003A5943 2019-04-19 20:44:44 16 35 18.9
003A5943 2019-04-19 20:10:28 16 35 18.8
003A5943 2019-04-19 19:36:12 16 35 18.8
003A5943 2019-04-19 19:01:56 16 35 18.7
003A5943 2019-04-19 18:27:38 16 35 18.5
003A5943 2019-04-19 17:53:22 16 35 18.3
003A5943 2019-04-19 17:19:05 15.9 35 18.2
003A5943 2019-04-19 16:44:50 15.9 35 18
003A5943 2019-04-19 16:10:35 15.9 35 17.8
003A5943 2019-04-19 15:36:20 15.9 35 17.7
003A5943 2019-04-19 15:02:04 15.9 35 17.6
003A5943 2019-04-19 14:27:48 15.9 35 17.6
003A5943 2019-04-19 13:53:31 15.8 35 17.4
003A5943 2019-04-19 13:19:15 15.9 35 17.3
003A5943 2019-04-19 12:44:58 16 35 17
003A5943 2019-04-19 12:10:42 15.9 35 16.8
003A5943 2019-04-19 11:36:27 16 35 16.5
003A5943 2019-04-19 11:02:11 16 35 16.3
003A5943 2019-04-19 10:27:54 16 35 16.3
003A5943 2019-04-19 09:53:38 16 35 16.5
003A5943 2019-04-19 09:19:22 16 35 16.5
003A5943 2019-04-19 08:45:07 16 35 17
003A5943 2019-04-19 08:10:50 16 35 17.6
003A5943 2019-04-19 07:36:34 16 35 17.5
003A5943 2019-04-19 07:02:18 16.1 35 17.8
003A5943 2019-04-19 06:28:02 16.1 35 18.1
003A5943 2019-04-19 05:53:46 16.2 35 18.5
003A5943 2019-04-19 05:19:30 16.3 35 18.8
003A5943 2019-04-19 04:45:16 16.3 35 19.6
003A5943 2019-04-19 04:10:58 16.3 35 19.8
003A5943 2019-04-19 03:36:41 16.3 35 20.2
003A5943 2019-04-19 03:02:25 16.3 35 20.7
003A5943 2019-04-19 02:28:11 16.3 35 21.5
003A5943 2019-04-19 01:53:53 16.4 35 22.2
003A5943 2019-04-19 01:19:36 16.4 35 22.7
003A5943 2019-04-19 00:45:20 16.4 35 23.3
003A5943 2019-04-19 00:11:03 16.5 35 23.4
003A5943 2019-04-18 23:36:45 16.5 35 23.7
003A5943 2019-04-18 23:02:26 16.5 34 23.9
003A5943 2019-04-18 22:28:09 16.5 34 24.3
003A5943 2019-04-18 21:53:51 16.5 34 24.3
003A5943 2019-04-18 21:19:32 16.5 34 24.4
003A5943 2019-04-18 20:45:15 16.5 34 24.5
003A5943 2019-04-18 20:10:58 16.5 34 24.5
003A5943 2019-04-18 19:36:40 16.5 34 24.5
003A5943 2019-04-18 19:02:24 16.5 34 24.5
003A5943 2019-04-18 18:28:07 16.5 34 24.5
003A5943 2019-04-18 17:53:50 16.5 34 24.4
003A5943 2019-04-18 17:19:34 16.5 34 24.5
003A5943 2019-04-18 16:45:18 16.4 34 24.4
003A5943 2019-04-18 16:11:01 16.4 34 24.4
003A5943 2019-04-18 15:36:44 16.4 34 24.2
003A5943 2019-04-18 15:02:27 16.4 34 24.2
003A5943 2019-04-18 14:28:09 16.3 34 24.2
003A5943 2019-04-18 13:53:52 16.4 34 24
003A5943 2019-04-18 13:19:36 16.4 35 23.6
003A5943 2019-04-18 12:45:20 16.5 35 23.2
003A5943 2019-04-18 12:11:05 16.5 35 22.8
003A5943 2019-04-18 11:36:50 16.5 34 22.6
003A5943 2019-04-18 11:02:34 16.5 34 22.4
003A5943 2019-04-18 10:28:19 16.5 34 22.4
003A5943 2019-04-18 09:54:04 16.5 34 22.2
003A5943 2019-04-18 09:19:48 16.5 34 21.9
003A5943 2019-04-18 08:45:32 16.5 34 21.5
003A5943 2019-04-18 08:11:16 16.6 34 21.8
003A5943 2019-04-18 07:37:01 16.6 34 21.9
003A5943 2019-04-18 07:02:45 16.7 34 21.8
003A5943 2019-04-18 06:28:29 16.7 34 21.9
003A5943 2019-04-18 05:54:13 16.7 34 21.8
003A5943 2019-04-18 05:19:58 16.7 34 21.7
003A5943 2019-04-18 04:45:41 16.7 34 21.8
003A5943 2019-04-18 04:11:25 16.7 34 21.7
003A5943 2019-04-18 03:37:08 16.8 34 21.6
003A5943 2019-04-18 03:02:53 16.9 34 21.5
003A5943 2019-04-18 02:28:37 16.9 34 21.4
003A5943 2019-04-18 01:54:21 16.9 34 21.5
003A5943 2019-04-18 01:20:06 17 34 21.4
003A5943 2019-04-18 00:45:49 17.1 34 21.4
003A5943 2019-04-18 00:11:32 17.1 34 21.3
003A5943 2019-04-17 23:37:16 17.1 34 21.3
003A5943 2019-04-17 23:02:58 17.1 34 21.3
003A5943 2019-04-17 22:28:41 17.1 34 21.3
003A5943 2019-04-17 21:54:24 17.1 34 21.4
003A5943 2019-04-17 21:20:07 17.1 34 21.4
003A5943 2019-04-17 20:45:51 17.1 34 21.3
003A5943 2019-04-17 20:11:35 17.2 34 21.1
003A5943 2019-04-17 19:37:19 17.3 34 21.2
003A5943 2019-04-17 19:03:02 17.3 34 21.2
003A5943 2019-04-17 18:28:47 17.3 34 21.1
003A5943 2019-04-17 17:54:31 17.3 33 21.1
003A5943 2019-04-17 17:20:16 17.3 33 21
003A5943 2019-04-17 16:46:00 17.4 33 21
003A5943 2019-04-17 16:11:44 17.5 33 21
003A5943 2019-04-17 15:37:29 17.5 33 22.1
003A5943 2019-04-17 15:03:14 17.6 33 22.2
003A5943 2019-04-17 14:28:59 17.6 33 22.2
003A5943 2019-04-17 13:54:44 17.8 33 22.3
003A5943 2019-04-17 12:46:13 17.8 33 22.2
003A5943 2019-04-17 12:11:57 17.8 33 22.2
003A5943 2019-04-17 11:37:41 17.9 33 22.2
003A5943 2019-04-17 11:03:24 18 33 23
003A5943 2019-04-17 10:29:08 18 33 22.9
003A5943 2019-04-17 09:54:52 18.1 33 22.9
003A5943 2019-04-17 09:20:36 18.2 32 22.9
003A5943 2019-04-17 08:46:20 18.3 32 22.8
003A5943 2019-04-17 08:12:04 18.4 32 22.8
003A5943 2019-04-17 07:37:47 18.4 32 22.7
003A5943 2019-04-17 07:03:31 18.5 32 22.8
003A5943 2019-04-17 06:29:15 18.6 32 22.9
003A5943 2019-04-17 05:54:57 18.6 32 22.9
003A5943 2019-04-17 05:20:40 18.6 32 22.8
003A5943 2019-04-17 04:46:25 18.8 31 22.7
003A5943 2019-04-17 04:12:08 18.8 31 22.6
003A5943 2019-04-17 03:37:51 18.9 31 22.4
003A5943 2019-04-17 03:03:35 19 31 22.2
003A5943 2019-04-17 02:29:20 19 31 22.1
003A5943 2019-04-17 01:55:04 19 31 22
003A5943 2019-04-17 01:20:49 19.2 31 21.8
003A5943 2019-04-17 00:46:34 19.2 30 20.4
003A5943 2019-04-17 00:12:18 19.2 30 20.2
003A5943 2019-04-16 23:38:01 19.5 30 21.4
003A5943 2019-04-16 23:03:46 19.5 30 21.2
003A5943 2019-04-16 22:29:32 19.7 30 21.3
003A5943 2019-04-16 21:55:12 19.7 29 21.3
003A5943 2019-04-16 21:20:55 19.8 29 21.2
003A5943 2019-04-16 20:46:37 19.9 29 19.7
003A5943 2019-04-16 20:12:20 19.9 29 19.6
003A5943 2019-04-16 19:38:05 20.1 29 19.5
003A5943 2019-04-16 19:03:47 20.1 28 19.5
003A5943 2019-04-16 18:29:30 20.1 28 19.6
003A5943 2019-04-16 17:55:15 20.3 28 19.5
003A5943 2019-04-16 16:46:42 20.5 28 21
003A5943 2019-04-16 16:12:27 20.5 28 20.6
003A5943 2019-04-16 15:38:11 20.5 28 20.4
003A5943 2019-04-16 15:03:55 20.7 27 20.3
003A5943 2019-04-16 14:29:40 20.7 27 20.4
003A5943 2019-04-16 13:55:24 20.7 27 20.4
003A5943 2019-04-16 13:21:13 20.7 27 20.4
003A5943 2019-04-16 12:46:54 20.7 28 20.4
003A5943 2019-04-16 12:12:37 20.7 28 20.3
003A5943 2019-04-16 11:38:21 20.7 29 20.4
003A5943 2019-04-16 11:04:04 20.5 30 20.4
003A5943 2019-04-16 10:29:50 20.5 30 20.4
003A5943 2019-04-16 09:55:32 20.5 30 20.5
003A5943 2019-04-16 08:46:56 20.5 30 20.6
003A5943 2019-04-16 08:12:41 20.5 30 19
003A5943 2019-04-16 07:38:24 20.5 30 19.1
003A5943 2019-04-16 07:04:06 20.5 30 19.1
003A5943 2019-04-16 06:29:50 20.5 30 19.1
003A5943 2019-04-16 05:55:33 20.5 30 19.1
003A5943 2019-04-16 05:21:17 20.5 30 19.1
003A5943 2019-04-16 04:47:00 20.5 29 19.2
003A5943 2019-04-16 04:12:46 20.5 29 19.1
003A5943 2019-04-16 03:38:27 20.5 29 19
003A5943 2019-04-16 03:04:11 20.5 29 19.6
003A5943 2019-04-16 02:29:54 20.5 29 20.3
003A5943 2019-04-16 01:55:38 20.6 29 18.8
003A5943 2019-04-16 01:21:21 20.6 29 19.4
003A5943 2019-04-16 00:47:06 20.6 28 19.8
003A5943 2019-04-16 00:12:51 20.6 28 20.3
003A5943 2019-04-15 23:38:34 20.7 28 20.8
003A5943 2019-04-15 23:04:18 20.7 28 21.5
003A5943 2019-04-15 22:30:02 20.7 28 22
003A5943 2019-04-15 21:55:46 20.7 28 22.4
003A5943 2019-04-15 21:21:33 20.7 27 23.1
003A5943 2019-04-15 20:47:14 20.7 27 23.8
003A5943 2019-04-15 20:12:58 20.7 27 24.5
003A5943 2019-04-15 19:38:42 20.9 27 24.8
003A5943 2019-04-15 19:04:27 21 26 24.9
003A5943 2019-04-15 18:30:12 21 26 25
003A5943 2019-04-15 17:55:55 21 26 25.1
003A5943 2019-04-15 17:21:39 21.1 25 25.3
003A5943 2019-04-15 16:47:23 21.2 25 25.8
003A5943 2019-04-15 16:13:07 21.2 24 25.9
003A5943 2019-04-15 15:38:54 21.3 23 26.2
003A5943 2019-04-15 14:30:16 21.6 22 26.3
003A5943 2019-04-15 13:55:59 21.6 21 26.5
003A5943 2019-04-15 13:21:44 21.8 19 26.7
003A5943 2019-04-15 12:47:27 22.1 17 26.9
003A5943 2019-04-15 12:13:11 22.5 17 27
003A5943 2019-04-15 11:38:55 22.3 15 26.9
003A5943 2019-04-15 11:04:39 22.2 16 27.2
003A5943 2019-04-15 10:30:24 22.2 16 27.4
003A5943 2019-04-15 09:56:09 22.2 17 27.4
003A5943 2019-04-15 09:21:53 22.1 17 27.4
003A5943 2019-04-15 08:47:37 22 17 27.4
003A5943 2019-04-15 08:13:20 22 16 27.2
003A5943 2019-04-15 07:39:03 21.9 17 27.2
003A5943 2019-04-15 07:04:46 21.8 17 27.2
003A5943 2019-04-15 06:30:29 21.8 17 27.1
003A5943 2019-04-15 05:56:13 21.8 17 26.8
003A5943 2019-04-15 05:21:57 21.8 17 26.7
003A5943 2019-04-15 04:47:40 21.8 17 26.7
003A5943 2019-04-15 04:13:24 21.8 17 26.8
003A5943 2019-04-15 03:39:07 21.8 17 26.8
003A5943 2019-04-15 03:04:51 21.8 17 26.8
003A5943 2019-04-15 02:30:36 21.8 17 26.9
003A5943 2019-04-15 01:56:20 21.8 17 26.6
003A5943 2019-04-15 01:22:05 21.8 17 26.7
003A5943 2019-04-15 00:47:50 21.8 17 26.6
003A5943 2019-04-15 00:13:34 21.8 17 26.7
003A5943 2019-04-14 23:39:17 21.8 17 26.7
003A5943 2019-04-14 23:05:03 21.8 17 26.6
003A5943 2019-04-14 22:30:47 21.8 17 26.6
003A5943 2019-04-14 21:56:31 22 18 26.6
003A5943 2019-04-14 21:22:16 22 18 26.5
003A5943 2019-04-14 20:48:01 22 18 26.2
003A5943 2019-04-14 20:13:45 22 18 26.1
003A5943 2019-04-14 19:39:30 22 18 26.3
003A5943 2019-04-14 19:05:14 22 18 26.5
003A5943 2019-04-14 18:30:59 22 18 26.5
003A5943 2019-04-14 17:56:43 22 18 26.6
003A5943 2019-04-14 17:22:27 22 18 26.8
003A5943 2019-04-14 16:48:11 22 18 26.9
003A5943 2019-04-14 16:13:55 22 18 27
003A5943 2019-04-14 15:39:39 22 18 27.1
003A5943 2019-04-14 15:05:22 22 18 27
003A5943 2019-04-14 14:31:05 22 18 26.9
003A5943 2019-04-14 13:56:49 22 18 26.9
003A5943 2019-04-14 13:22:34 22 18 27
003A5943 2019-04-14 12:48:17 22 18 27.2
003A5943 2019-04-14 12:14:01 22 18 27.2
003A5943 2019-04-14 11:39:46 22 18 27.4
003A5943 2019-04-14 11:05:30 22 18 27.3
003A5943 2019-04-14 10:31:14 22 18 27.4
003A5943 2019-04-14 09:56:59 22 18 27.4
003A5943 2019-04-14 09:22:44 21.9 18 27.5
003A5943 2019-04-14 08:48:29 21.9 18 27.5
003A5943 2019-04-14 08:14:13 21.9 18 27.5
003A5943 2019-04-14 07:39:57 21.9 18 27.4
003A5943 2019-04-14 07:05:41 21.9 18 27.5
003A5943 2019-04-14 06:31:25 21.9 18 27.5
003A5943 2019-04-14 05:57:09 22 17 27.5
003A5943 2019-04-14 05:22:53 22 18 27.4
003A5943 2019-04-14 04:48:35 22 17 27.3
003A5943 2019-04-14 04:14:18 22 17 27.3
003A5943 2019-04-14 03:40:01 22 18 27.2
003A5943 2019-04-14 03:05:45 22 18 27.3
003A5943 2019-04-14 02:31:27 22 18 27.1
003A5943 2019-04-14 01:57:09 22 18 27
003A5943 2019-04-14 01:22:52 22 18 27
003A5943 2019-04-14 00:48:34 22 18 27
003A5943 2019-04-14 00:14:17 22 18 27
003A5943 2019-04-13 23:40:00 22.1 17 27
003A5943 2019-04-13 23:05:42 22.1 17 27
003A5943 2019-04-13 22:31:24 22.1 17 26.8
003A5943 2019-04-13 21:57:07 22.1 17 26.7
003A5943 2019-04-13 21:22:49 22.1 17 26.6
003A5943 2019-04-13 20:48:32 22.2 17 26.7
003A5943 2019-04-13 20:14:14 22.2 17 26.5
003A5943 2019-04-13 19:39:55 22.2 17 26.4
003A5943 2019-04-13 19:05:37 22.2 17 26.5
003A5943 2019-04-13 18:31:19 22.2 18 26.4
003A5943 2019-04-13 17:57:00 22.2 18 26.4
003A5943 2019-04-13 17:22:41 22.2 18 26.4
003A5943 2019-04-13 16:48:24 22.2 18 26.3
003A5943 2019-04-13 16:14:06 22.3 18 26.4
003A5943 2019-04-13 15:39:48 22.3 18 26.4
003A5943 2019-04-13 15:05:31 22.4 18 26.3
003A5943 2019-04-13 14:31:13 22.4 18 26.4
003A5943 2019-04-13 13:56:55 22.5 18 26.5
003A5943 2019-04-13 13:22:37 22.5 18 26.8
003A5943 2019-04-13 12:48:20 22.5 18 26.5
003A5943 2019-04-13 12:14:01 22.5 18 26.5
003A5943 2019-04-13 11:39:42 22.5 18 26.5
003A5943 2019-04-13 11:05:24 22.5 18 26.5
003A5943 2019-04-13 10:31:07 22.4 18 26.5
003A5943 2019-04-13 09:56:50 22.5 18 26.5
003A5943 2019-04-13 09:22:33 22.5 18 26.7
003A5943 2019-04-13 08:48:16 22.5 17 26.5
003A5943 2019-04-13 08:14:00 22.5 17 26.5
003A5943 2019-04-13 07:39:42 22.4 17 26.8
003A5943 2019-04-13 07:05:23 22.4 17 26.7
003A5943 2019-04-13 06:31:06 22.5 17 26.6
003A5943 2019-04-13 05:56:48 22.5 17 26.7
003A5943 2019-04-13 05:22:30 22.5 17 27
003A5943 2019-04-13 04:48:12 22.5 17 27
003A5943 2019-04-13 04:13:54 22.5 17 27.2
003A5943 2019-04-13 03:39:36 22.5 17 27.2
003A5943 2019-04-13 03:05:18 22.5 18 27.1
003A5943 2019-04-13 02:31:01 22.5 18 27.2
003A5943 2019-04-13 01:56:43 22.5 18 27.3
003A5943 2019-04-13 01:22:25 22.6 18 27.3
003A5943 2019-04-13 00:48:07 22.6 18 27.3
003A5943 2019-04-13 00:13:49 22.7 18 27.3
003A5943 2019-04-12 23:39:31 22.7 18 27.3
003A5943 2019-04-12 23:05:13 22.7 18 27.1
003A5943 2019-04-12 22:30:56 22.8 18 27.2
003A5943 2019-04-12 21:56:37 22.9 19 27.3
003A5943 2019-04-12 21:22:19 22.9 19 27.4
003A5943 2019-04-12 20:48:02 22.9 18 27.6
003A5943 2019-04-12 20:13:44 22.9 18 27.6
003A5943 2019-04-12 19:39:27 22.9 18 27.8
003A5943 2019-04-12 19:05:08 22.9 18 27.5
003A5943 2019-04-12 18:30:51 23.1 17 27.8
003A5943 2019-04-12 17:56:32 23.1 17 27.9
003A5943 2019-04-12 17:22:13 23.1 17 27.6
003A5943 2019-04-12 16:47:53 23.1 17 27.9
003A5943 2019-04-12 16:13:34 23 17 28.1
003A5943 2019-04-12 15:39:14 22.9 18 28.2
003A5943 2019-04-12 15:04:55 22.7 18 27.6
003A5943 2019-04-12 14:30:36 22.5 19 26.3
003A5943 2019-04-12 13:56:17 22.1 19 21.4
003A5943 2019-04-12 13:21:58 21.6 21 16.9